Pompano Beach, FL

9:56 PM EDT on June 27, 2017 (GMT -0400)
Pompano Beach

Weather History for KPMP - January, 2012

Change the Weather History Date:

Thursday, January 19, 2012

  Actual Average Record
Temperature  
Mean Temperature 68 °F -  
Max Temperature 75 °F 77 °F 86 °F (1987)
Min Temperature 57 °F 57 °F 33 °F (1977)
Cooling Degree Days 2    
Growing Degree Days 18 (Base 50)    
Moisture  
Dew Point 57 °F    
Average Humidity 72    
Maximum Humidity 96    
Minimum Humidity 45    
Precipitation  
Precipitation 0.00 in - - ()
Sea Level Pressure  
Sea Level Pressure 30.10 in    
Wind  
Wind Speed 10 mph (NNW)    
Max Wind Speed 17 mph    
Max Gust Speed 25 mph    
Visibility 10 miles    
Events      
Averages and records for this station are not official NWS values.
T = Trace of Precipitation, MM = Missing Value Source: NWS Daily Summary

Daily Weather History Graph

Daily Weather History Graph

Search for Another Location

Airport or City:

Trip Planner

Search our weather history database for the weather conditions in past years. The results will help you decide how hot, cold, wet, or windy it might be!

Date:

Astronomy

Jan. 19, 2012 Rise Set
Actual Time 7:09 AM EST 5:53 PM EST
Civil Twilight 6:44 AM EST 6:17 PM EST
Nautical Twilight 6:16 AM EST 6:46 PM EST
Astronomical Twilight 5:48 AM EST 7:13 PM EST
Moon 3:38 AM EST (1/19) 2:29 PM EST (1/19)
Length of Visible Light 11h 33m
Length of Day
10h 43m
Waning Crescent, 16% of the Moon is Illuminated
Jan 19
Waning Crescent
Jan 23
New
Jan 30
First Quarter
Feb 7
Full
Feb 14
Last Quarter

Hourly Weather History & Observations

Time (EST) Temp. Dew Point Humidity Pressure Visibility Wind Dir Wind Speed Gust Speed Precip Events Conditions
12:53 AM 68.0 °F 60.1 °F 76% 30.06 in 10.0 mi West 12.7 mph - N/A   Clear
1:53 AM 66.0 °F 61.0 °F 84% 30.04 in 10.0 mi West 8.1 mph - N/A   Clear
2:53 AM 64.9 °F 61.0 °F 87% 30.03 in 10.0 mi West 8.1 mph - N/A   Clear
3:53 AM 64.9 °F 61.0 °F 87% 30.03 in 10.0 mi WNW 9.2 mph - N/A   Mostly Cloudy
4:53 AM 64.0 °F 60.1 °F 87% 30.02 in 10.0 mi WNW 6.9 mph - N/A   Partly Cloudy
5:53 AM 64.9 °F 62.1 °F 90% 30.05 in 10.0 mi NW 9.2 mph - N/A   Mostly Cloudy
6:53 AM 64.0 °F 63.0 °F 96% 30.08 in 10.0 mi NNW 12.7 mph - N/A   Scattered Clouds
7:05 AM 64.4 °F 62.6 °F 94% 30.09 in 10.0 mi NNW 12.7 mph - N/A   Mostly Cloudy
7:53 AM 64.0 °F 63.0 °F 96% 30.10 in 10.0 mi NW 9.2 mph - N/A   Partly Cloudy
8:04 AM 64.4 °F 62.6 °F 94% 30.11 in 10.0 mi NW 10.4 mph - N/A   Partly Cloudy
8:53 AM 66.9 °F 62.1 °F 84% 30.12 in 10.0 mi NNW 12.7 mph - N/A   Clear
9:53 AM 70.0 °F 60.1 °F 71% 30.14 in 10.0 mi NNW 10.4 mph - N/A   Clear
10:53 AM 73.0 °F 55.9 °F 55% 30.15 in 10.0 mi North 10.4 mph - N/A   Scattered Clouds
11:53 AM 75.0 °F 54.0 °F 48% 30.13 in 10.0 mi North 10.4 mph - N/A   Clear
1:53 PM 75.0 °F 53.1 °F 46% 30.10 in 10.0 mi NE 17.3 mph 25.3 mph N/A   Clear
2:53 PM 75.0 °F 55.0 °F 50% 30.09 in 10.0 mi NNE 12.7 mph - N/A   Clear
3:53 PM 73.9 °F 55.0 °F 52% 30.09 in 10.0 mi NNE 11.5 mph - N/A   Clear
4:53 PM 73.9 °F 51.1 °F 45% 30.10 in 10.0 mi NNE 9.2 mph - N/A   Clear
5:53 PM 71.1 °F 53.1 °F 53% 30.11 in 10.0 mi NE 6.9 mph - N/A   Clear
6:53 PM 69.1 °F 52.0 °F 54% 30.13 in 10.0 mi NE 5.8 mph - N/A   Clear
8:53 PM 69.1 °F 53.1 °F 57% 30.14 in 10.0 mi East 8.1 mph - N/A   Clear
9:53 PM 63.0 °F 52.0 °F 67% 30.14 in 10.0 mi Variable 3.5 mph - N/A   Clear
10:53 PM 60.1 °F 52.0 °F 75% 30.15 in 10.0 mi NNW 5.8 mph - N/A   Clear
11:53 PM 57.9 °F 52.0 °F 81% 30.16 in 10.0 mi NNW 3.5 mph - N/A   Clear